QPF
0.00 0.00 0.00 0.00 0.00 0.00 0.00 0.00 0.00 0.00 0.00 0.00 0.00 0.00 0.00 0.00 0.01 0.01 0.01 0.01 0.01 0.01 0.01 0.01 0.02 0.01 0.02 0.02 0.02 0.03 0.03 0.03 0.03 0.01 0.00 0.01 0.01 0.01 0.02 0.02 0.02 0.02 0.03
0.00 0.00 0.00 0.00 0.00 0.00 0.00 0.00 0.00 0.00 0.00 0.00 0.00 0.00 0.00 0.00 0.00 0.01 0.01 0.01 0.01 0.01 0.01 0.01 0.01 0.01 0.01 0.02 0.02 0.02 0.02 0.02 0.02 0.02 0.01 0.01 0.01 0.02 0.02 0.02 0.02 0.02 0.02
0.00 0.00 0.00 0.00 0.00 0.00 0.00 0.00 0.00 0.00 0.00 0.00 0.00 0.00 0.00 0.00 0.00 0.01 0.01 0.01 0.01 0.01 0.01 0.01 0.01 0.01 0.02 0.02 0.02 0.02 0.02 0.02 0.03 0.03 0.02 0.02 0.02 0.01 0.01 0.02 0.01 0.01 0.02
0.00 0.00 0.00 0.00 0.00 0.00 0.00 0.00 0.00 0.00 0.00 0.00 0.00 0.00 0.00 0.00 0.01 0.01 0.01 0.01 0.01 0.01 0.01 0.01 0.01 0.01 0.01 0.01 0.02 0.02 0.02 0.03 0.03 0.04 0.03 0.02 0.02 0.02 0.02 0.01 0.01 0.01 0.01
0.00 0.00 0.00 0.00 0.00 0.00 0.00 0.00 0.00 0.00 0.00 0.00 0.00 0.00 0.00 0.01 0.01 0.01 0.01 0.01 0.01 0.01 0.01 0.01 0.01 0.02 0.02 0.02 0.02 0.02 0.02 0.03 0.03 0.03 0.02 0.02 0.02 0.02 0.02 0.02 0.03 0.03 0.02
0.00 0.00 0.00 0.00 0.00 0.00 0.00 0.00 0.00 0.00 0.00 0.00 0.00 0.00 0.01 0.01 0.01 0.01 0.01 0.01 0.01 0.01 0.01 0.01 0.01 0.01 0.02 0.02 0.02 0.02 0.03 0.03 0.03 0.03 0.03 0.03 0.02 0.02 0.03 0.03 0.03 0.03 0.02
0.00 0.00 0.00 0.00 0.00 0.00 0.00 0.00 0.00 0.00 0.00 0.00 0.00 0.00 0.01 0.01 0.01 0.01 0.01 0.01 0.01 0.01 0.01 0.01 0.01 0.01 0.02 0.01 0.02 0.03 0.03 0.04 0.04 0.03 0.03 0.02 0.02 0.02 0.02 0.02 0.02 0.02 0.01
0.00 0.00 0.00 0.00 0.00 0.00 0.00 0.00 0.00 0.00 0.00 0.00 0.00 0.00 0.01 0.01 0.01 0.01 0.01 0.01 0.01 0.01 0.01 0.02 0.02 0.01 0.01 0.01 0.01 0.01 0.01 0.02 0.02 0.02 0.01 0.01 0.01 0.01 0.01 0.02 0.02 0.02 0.02
0.00 0.00 0.00 0.00 0.00 0.00 0.00 0.00 0.00 0.00 0.00 0.00 0.00 0.01 0.01 0.01 0.02 0.01 0.02 0.02 0.02 0.02 0.02 0.02 0.02 0.02 0.02 0.02 0.01 0.01 0.01 0.01 0.02 0.02 0.02 0.02 0.02 0.02 0.02 0.02 0.02 0.02 0.02
0.00 0.00 0.00 0.00 0.00 0.00 0.00 0.00 0.00 0.00 0.00 0.00 0.00 0.00 0.01 0.01 0.01 0.01 0.01 0.01 0.01 0.01 0.01 0.02 0.02 0.02 0.01 0.01 0.01 0.01 0.01 0.01 0.01 0.01 0.01 0.01 0.01 0.01 0.02 0.01 0.01 0.01 0.01
0.00 0.00 0.00 0.00 0.00 0.00 0.00 0.00 0.00 0.00 0.00 0.00 0.00 0.00 0.00 0.01 0.01 0.01 0.01 0.00 0.00 0.00 0.00 0.01 0.01 0.01 0.01 0.01 0.01 0.01 0.01 0.01 0.00 0.01 0.01 0.01 0.01 0.01 0.01 0.01 0.01 0.01 0.01
0.00 0.00 0.00 0.00 0.00 0.00 0.00 0.00 0.00 0.00 0.00 0.00 0.00 0.00 0.00 0.00 0.01 0.01 0.01 0.01 0.01 0.00 0.00 0.00 0.01 0.01 0.01 0.01 0.01 0.01 0.01 0.01 0.01 0.01 0.01 0.01 0.01 0.01 0.01 0.01 0.01 0.01 0.01
0.00 0.00 0.00 0.00 0.00 0.00 0.00 0.00 0.00 0.00 0.00 0.00 0.00 0.00 0.00 0.00 0.00 0.01 0.01 0.01 0.01 0.01 0.01 0.01 0.01 0.01 0.01 0.01 0.01 0.01 0.01 0.01 0.01 0.01 0.01 0.01 0.00 0.01 0.01 0.01 0.01 0.01 0.01
0.01 0.01 0.01 0.01 0.01 0.00 0.00 0.00 0.00 0.00 0.00 0.00 0.00 0.00 0.00 0.00 0.00 0.00 0.00 0.00 0.01 0.01 0.01 0.01 0.02 0.01 0.01 0.01 0.01 0.01 0.01 0.01 0.01 0.01 0.01 0.01 0.01 0.01 0.01 0.01 0.01 0.01 0.01
0.01 0.01 0.01 0.01 0.01 0.01 0.01 0.01 0.01 0.01 0.01 0.01 0.01 0.01 0.00 0.00 0.01 0.01 0.01 0.01 0.01 0.01 0.01 0.01 0.01 0.01 0.01 0.01 0.01 0.01 0.01 0.01 0.01 0.01 0.01 0.01 0.01 0.01 0.01 0.01 0.01 0.01 0.01
0.02 0.02 0.02 0.02 0.02 0.02 0.01 0.02 0.02 0.02 0.02 0.01 0.01 0.01 0.01 0.01 0.01 0.01 0.01 0.01 0.01 0.02 0.02 0.02 0.01 0.01 0.01 0.01 0.01 0.01 0.01 0.01 0.01 0.01 0.01 0.01 0.01 0.01 0.01 0.01 0.01 0.01 0.01
0.03 0.03 0.03 0.03 0.03 0.03 0.02 0.02 0.02 0.02 0.02 0.01 0.02 0.02 0.02 0.02 0.01 0.01 0.01 0.02 0.02 0.03 0.02 0.02 0.02 0.02 0.02 0.02 0.02 0.02 0.01 0.01 0.01 0.01 0.01 0.01 0.01 0.01 0.01 0.01 0.01 0.01 0.01
0.04 0.05 0.05 0.05 0.04 0.04 0.03 0.03 0.03 0.02 0.02 0.02 0.02 0.03 0.03 0.03 0.03 0.03 0.03 0.03 0.04 0.04 0.03 0.03 0.03 0.03 0.03 0.03 0.03 0.02 0.02 0.02 0.02 0.01 0.01 0.01 0.01 0.01 0.01 0.01 0.01 0.01 0.01
0.04 0.04 0.04 0.04 0.04 0.04 0.04 0.04 0.04 0.03 0.03 0.03 0.03 0.04 0.04 0.04 0.05 0.05 0.05 0.05 0.05 0.05 0.04 0.04 0.04 0.04 0.04 0.04 0.03 0.03 0.02 0.02 0.02 0.02 0.02 0.01 0.01 0.01 0.01 0.01 0.01 0.01 0.01
0.04 0.04 0.04 0.04 0.04 0.04 0.05 0.05 0.05 0.05 0.05 0.05 0.05 0.05 0.05 0.06 0.06 0.06 0.06 0.06 0.06 0.06 0.06 0.05 0.05 0.05 0.04 0.04 0.04 0.04 0.03 0.03 0.03 0.03 0.02 0.02 0.01 0.01 0.01 0.01 0.01 0.01 0.01
0.04 0.04 0.04 0.05 0.05 0.05 0.06 0.06 0.06 0.06 0.06 0.06 0.06 0.06 0.06 0.07 0.07 0.07 0.06 0.07 0.07 0.07 0.06 0.06 0.06 0.06 0.06 0.06 0.05 0.05 0.05 0.04 0.04 0.03 0.03 0.02 0.02 0.02 0.02 0.02 0.02 0.02 0.01
0.05 0.05 0.06 0.06 0.06 0.06 0.07 0.07 0.07 0.07 0.07 0.07 0.07 0.07 0.07 0.07 0.07 0.08 0.08 0.08 0.08 0.08 0.08 0.08 0.08 0.08 0.07 0.07 0.07 0.06 0.06 0.05 0.04 0.04 0.03 0.03 0.03 0.02 0.02 0.02 0.02 0.01 0.01
0.07 0.07 0.07 0.07 0.07 0.08 0.08 0.08 0.08 0.08 0.08 0.08 0.07 0.07 0.08 0.08 0.08 0.09 0.09 0.09 0.09 0.09 0.09 0.09 0.09 0.08 0.07 0.07 0.06 0.05 0.05 0.04 0.04 0.03 0.03 0.03 0.02 0.02 0.02 0.02 0.01 0.01 0.01
0.06 0.06 0.06 0.06 0.06 0.07 0.07 0.07 0.07 0.07 0.07 0.07 0.08 0.08 0.08 0.08 0.08 0.09 0.09 0.09 0.09 0.09 0.08 0.08 0.08 0.07 0.07 0.06 0.06 0.05 0.04 0.04 0.03 0.03 0.03 0.02 0.02 0.02 0.02 0.02 0.01 0.01 0.01
0.05 0.05 0.05 0.05 0.05 0.05 0.06 0.06 0.06 0.06 0.07 0.07 0.07 0.07 0.08 0.08 0.08 0.08 0.09 0.09 0.09 0.09 0.08 0.08 0.08 0.07 0.07 0.06 0.06 0.05 0.04 0.04 0.03 0.03 0.03 0.02 0.02 0.01 0.01 0.01 0.01 0.01 0.01
0.04 0.04 0.04 0.05 0.05 0.05 0.05 0.06 0.06 0.06 0.06 0.07 0.07 0.08 0.08 0.08 0.09 0.09 0.09 0.09 0.09 0.09 0.09 0.09 0.08 0.08 0.07 0.06 0.06 0.05 0.04 0.04 0.03 0.03 0.02 0.02 0.02 0.01 0.01 0.01 0.01 0.01 0.01
MSLP
1013.25 1013.05 1012.85 1012.63 1012.39 1012.14 1011.88 1011.63 1011.43 1011.28 1011.21 1011.21 1011.30 1011.44 1011.63 1011.85 1012.08 1012.32 1012.55 1012.78 1013.02 1013.25 1013.49 1013.72 1013.94 1014.12 1014.26 1014.35 1014.38 1014.37 1014.32 1014.26 1014.21 1014.21 1014.27 1014.42 1014.65 1014.95 1015.32 1015.71 1016.11 1016.48 1016.82
1013.60 1013.36 1013.11 1012.84 1012.54 1012.23 1011.90 1011.58 1011.29 1011.06 1010.90 1010.82 1010.81 1010.88 1011.00 1011.16 1011.34 1011.54 1011.74 1011.95 1012.16 1012.37 1012.57 1012.78 1012.97 1013.13 1013.26 1013.35 1013.39 1013.39 1013.37 1013.35 1013.34 1013.38 1013.48 1013.67 1013.94 1014.29 1014.70 1015.14 1015.60 1016.04 1016.45
1014.04 1013.78 1013.51 1013.22 1012.88 1012.52 1012.13 1011.75 1011.38 1011.05 1010.79 1010.60 1010.48 1010.45 1010.47 1010.55 1010.66 1010.79 1010.94 1011.10 1011.27 1011.44 1011.61 1011.78 1011.94 1012.08 1012.21 1012.30 1012.37 1012.42 1012.45 1012.48 1012.54 1012.63 1012.79 1013.02 1013.33 1013.71 1014.16 1014.64 1015.15 1015.64 1016.09
1014.51 1014.28 1014.01 1013.70 1013.35 1012.96 1012.52 1012.07 1011.63 1011.21 1010.84 1010.53 1010.30 1010.14 1010.05 1010.02 1010.03 1010.08 1010.16 1010.25 1010.36 1010.48 1010.60 1010.73 1010.86 1011.00 1011.12 1011.24 1011.34 1011.44 1011.53 1011.63 1011.76 1011.92 1012.13 1012.40 1012.75 1013.16 1013.63 1014.14 1014.66 1015.18 1015.68
1015.02 1014.80 1014.55 1014.25 1013.89 1013.47 1013.00 1012.50 1011.98 1011.48 1011.00 1010.58 1010.22 1009.94 1009.72 1009.57 1009.48 1009.43 1009.42 1009.44 1009.48 1009.53 1009.60 1009.69 1009.79 1009.90 1010.03 1010.16 1010.30 1010.45 1010.60 1010.77 1010.96 1011.17 1011.44 1011.75 1012.12 1012.55 1013.03 1013.55 1014.09 1014.64 1015.15
1015.54 1015.34 1015.10 1014.80 1014.44 1014.00 1013.50 1012.96 1012.38 1011.80 1011.23 1010.70 1010.23 1009.82 1009.49 1009.22 1009.01 1008.86 1008.76 1008.69 1008.66 1008.65 1008.67 1008.71 1008.77 1008.86 1008.98 1009.12 1009.28 1009.45 1009.65 1009.87 1010.10 1010.37 1010.67 1011.02 1011.41 1011.85 1012.35 1012.87 1013.42 1013.98 1014.52
1016.08 1015.88 1015.64 1015.33 1014.95 1014.49 1013.97 1013.39 1012.77 1012.12 1011.48 1010.87 1010.29 1009.78 1009.33 1008.95 1008.64 1008.40 1008.21 1008.06 1007.96 1007.89 1007.85 1007.84 1007.87 1007.93 1008.02 1008.14 1008.30 1008.49 1008.70 1008.94 1009.20 1009.50 1009.83 1010.20 1010.61 1011.07 1011.57 1012.12 1012.68 1013.25 1013.81
1016.64 1016.41 1016.14 1015.80 1015.40 1014.91 1014.36 1013.75 1013.09 1012.40 1011.70 1011.02 1010.36 1009.76 1009.23 1008.76 1008.36 1008.04 1007.77 1007.56 1007.40 1007.27 1007.18 1007.13 1007.11 1007.13 1007.19 1007.28 1007.42 1007.59 1007.79 1008.03 1008.30 1008.61 1008.95 1009.34 1009.78 1010.26 1010.79 1011.35 1011.94 1012.53 1013.11
1017.22 1016.94 1016.61 1016.22 1015.76 1015.24 1014.65 1014.01 1013.31 1012.58 1011.84 1011.10 1010.39 1009.72 1009.12 1008.58 1008.12 1007.73 1007.41 1007.15 1006.94 1006.78 1006.65 1006.56 1006.51 1006.49 1006.50 1006.56 1006.66 1006.80 1006.98 1007.20 1007.46 1007.78 1008.13 1008.54 1009.01 1009.52 1010.08 1010.67 1011.28 1011.90 1012.51
1017.82 1017.46 1017.05 1016.58 1016.05 1015.47 1014.83 1014.14 1013.40 1012.63 1011.84 1011.06 1010.30 1009.59 1008.93 1008.34 1007.83 1007.40 1007.04 1006.75 1006.52 1006.33 1006.19 1006.07 1005.99 1005.94 1005.93 1005.95 1006.01 1006.12 1006.28 1006.49 1006.75 1007.06 1007.44 1007.88 1008.37 1008.92 1009.52 1010.15 1010.80 1011.45 1012.08
1018.44 1017.98 1017.47 1016.90 1016.28 1015.61 1014.89 1014.13 1013.34 1012.52 1011.69 1010.86 1010.05 1009.29 1008.59 1007.96 1007.42 1006.96 1006.58 1006.27 1006.03 1005.84 1005.69 1005.57 1005.49 1005.43 1005.40 1005.41 1005.45 1005.55 1005.70 1005.91 1006.18 1006.51 1006.92 1007.39 1007.92 1008.52 1009.15 1009.82 1010.50 1011.17 1011.82
1019.05 1018.49 1017.86 1017.18 1016.44 1015.67 1014.86 1014.02 1013.14 1012.25 1011.36 1010.47 1009.62 1008.81 1008.06 1007.40 1006.82 1006.34 1005.94 1005.63 1005.39 1005.20 1005.07 1004.96 1004.89 1004.85 1004.83 1004.85 1004.91 1005.02 1005.19 1005.43 1005.73 1006.10 1006.55 1007.07 1007.65 1008.28 1008.96 1009.66 1010.36 1011.05 1011.70
1019.65 1018.98 1018.24 1017.43 1016.58 1015.68 1014.76 1013.81 1012.84 1011.86 1010.89 1009.93 1009.01 1008.14 1007.35 1006.64 1006.03 1005.52 1005.10 1004.78 1004.54 1004.37 1004.25 1004.17 1004.13 1004.12 1004.14 1004.20 1004.31 1004.47 1004.69 1004.98 1005.34 1005.77 1006.28 1006.85 1007.48 1008.16 1008.87 1009.58 1010.30 1010.99 1011.64
1020.20 1019.43 1018.58 1017.66 1016.69 1015.68 1014.63 1013.56 1012.49 1011.41 1010.35 1009.31 1008.32 1007.38 1006.53 1005.77 1005.11 1004.56 1004.12 1003.77 1003.52 1003.35 1003.24 1003.18 1003.17 1003.20 1003.28 1003.40 1003.58 1003.81 1004.11 1004.48 1004.92 1005.43 1006.01 1006.65 1007.33 1008.04 1008.77 1009.50 1010.22 1010.90 1011.54
1020.66 1019.83 1018.90 1017.88 1016.80 1015.68 1014.52 1013.35 1012.17 1011.00 1009.84 1008.72 1007.66 1006.66 1005.74 1004.92 1004.20 1003.60 1003.11 1002.73 1002.44 1002.25 1002.13 1002.08 1002.08 1002.15 1002.27 1002.46 1002.70 1003.02 1003.41 1003.87 1004.40 1005.00 1005.65 1006.35 1007.08 1007.83 1008.57 1009.31 1010.02 1010.69 1011.33
1021.01 1020.14 1019.15 1018.07 1016.92 1015.72 1014.48 1013.22 1011.96 1010.72 1009.50 1008.32 1007.19 1006.14 1005.16 1004.28 1003.51 1002.85 1002.29 1001.84 1001.50 1001.25 1001.08 1001.00 1000.99 1001.06 1001.20 1001.43 1001.74 1002.12 1002.59 1003.14 1003.75 1004.42 1005.15 1005.90 1006.67 1007.44 1008.20 1008.94 1009.65 1010.32 1010.95
1021.21 1020.33 1019.33 1018.23 1017.04 1015.80 1014.52 1013.23 1011.94 1010.66 1009.41 1008.21 1007.06 1005.97 1004.96 1004.04 1003.21 1002.48 1001.85 1001.32 1000.89 1000.55 1000.30 1000.15 1000.09 1000.12 1000.24 1000.47 1000.80 1001.22 1001.73 1002.33 1003.01 1003.74 1004.51 1005.30 1006.10 1006.89 1007.67 1008.41 1009.12 1009.80 1010.44
1021.26 1020.40 1019.42 1018.33 1017.16 1015.93 1014.67 1013.40 1012.12 1010.87 1009.64 1008.46 1007.33 1006.25 1005.24 1004.30 1003.44 1002.65 1001.94 1001.32 1000.79 1000.34 999.98 999.71 999.55 999.50 999.56 999.74 1000.04 1000.45 1000.97 1001.58 1002.27 1003.02 1003.82 1004.63 1005.44 1006.24 1007.02 1007.77 1008.48 1009.17 1009.83
1021.15 1020.34 1019.41 1018.38 1017.27 1016.10 1014.91 1013.70 1012.50 1011.32 1010.18 1009.07 1008.00 1006.98 1006.01 1005.09 1004.22 1003.40 1002.63 1001.92 1001.28 1000.71 1000.22 999.83 999.54 999.36 999.32 999.40 999.62 999.97 1000.45 1001.02 1001.69 1002.42 1003.19 1003.99 1004.80 1005.59 1006.36 1007.11 1007.83 1008.53 1009.22
1020.93 1020.18 1019.32 1018.37 1017.35 1016.29 1015.20 1014.11 1013.03 1011.97 1010.95 1009.96 1009.00 1008.08 1007.18 1006.31 1005.47 1004.64 1003.84 1003.07 1002.34 1001.66 1001.05 1000.52 1000.10 999.79 999.61 999.57 999.68 999.93 1000.30 1000.80 1001.39 1002.06 1002.78 1003.53 1004.29 1005.05 1005.80 1006.54 1007.26 1007.97 1008.67
1020.64 1019.95 1019.17 1018.32 1017.41 1016.47 1015.51 1014.56 1013.62 1012.72 1011.84 1011.00 1010.18 1009.38 1008.59 1007.80 1007.01 1006.22 1005.42 1004.62 1003.84 1003.09 1002.38 1001.74 1001.19 1000.76 1000.44 1000.28 1000.25 1000.37 1000.63 1001.01 1001.49 1002.06 1002.68 1003.35 1004.05 1004.75 1005.45 1006.15 1006.85 1007.55 1008.25
1020.34 1019.71 1019.01 1018.25 1017.45 1016.63 1015.81 1015.00 1014.21 1013.46 1012.74 1012.04 1011.36 1010.69 1010.02 1009.34 1008.63 1007.89 1007.13 1006.35 1005.56 1004.78 1004.02 1003.32 1002.69 1002.16 1001.74 1001.45 1001.31 1001.29 1001.42 1001.66 1002.02 1002.45 1002.96 1003.52 1004.12 1004.73 1005.37 1006.01 1006.66 1007.32 1008.00
1020.09 1019.52 1018.88 1018.21 1017.50 1016.79 1016.08 1015.39 1014.73 1014.11 1013.52 1012.95 1012.40 1011.85 1011.29 1010.70 1010.09 1009.43 1008.74 1008.01 1007.26 1006.50 1005.75 1005.04 1004.39 1003.81 1003.33 1002.97 1002.72 1002.60 1002.60 1002.72 1002.93 1003.24 1003.61 1004.04 1004.52 1005.03 1005.57 1006.13 1006.71 1007.31 1007.93
1019.94 1019.41 1018.83 1018.21 1017.58 1016.95 1016.32 1015.73 1015.16 1014.63 1014.13 1013.66 1013.20 1012.73 1012.26 1011.76 1011.23 1010.66 1010.05 1009.40 1008.73 1008.04 1007.35 1006.69 1006.07 1005.50 1005.01 1004.62 1004.32 1004.12 1004.03 1004.03 1004.12 1004.29 1004.54 1004.84 1005.19 1005.58 1006.01 1006.48 1006.97 1007.50 1008.04
1019.90 1019.40 1018.86 1018.29 1017.71 1017.13 1016.56 1016.03 1015.52 1015.04 1014.59 1014.16 1013.75 1013.34 1012.92 1012.48 1012.01 1011.51 1010.98 1010.43 1009.85 1009.26 1008.67 1008.09 1007.54 1007.04 1006.59 1006.20 1005.89 1005.66 1005.50 1005.42 1005.41 1005.48 1005.60 1005.79 1006.03 1006.31 1006.64 1007.01 1007.42 1007.86 1008.33
1019.96 1019.48 1018.97 1018.43 1017.89 1017.35 1016.82 1016.31 1015.82 1015.37 1014.93 1014.52 1014.11 1013.71 1013.31 1012.89 1012.46 1012.01 1011.55 1011.07 1010.59 1010.10 1009.61 1009.15 1008.70 1008.28 1007.90 1007.56 1007.27 1007.03 1006.84 1006.71 1006.64 1006.62 1006.66 1006.76 1006.91 1007.11 1007.36 1007.65 1007.98 1008.35 1008.75
Thickness
5649 5651 5654 5656 5658 5658 5659 5660 5659 5659 5658 5657 5656 5653 5651 5648 5644 5640 5637 5634 5630 5627 5624 5620 5618 5613 5609 5605 5601 5597 5593 5589 5591 5593 5585 5580 5574 5568 5563 5556 5551 5545 5540
5637 5639 5642 5644 5646 5647 5649 5650 5650 5650 5649 5648 5647 5645 5644 5641 5638 5634 5631 5628 5625 5622 5619 5615 5612 5607 5604 5600 5596 5592 5588 5584 5581 5583 5578 5570 5565 5560 5554 5548 5543 5538 5532
5623 5626 5628 5631 5633 5635 5637 5638 5639 5639 5639 5638 5637 5636 5635 5632 5630 5627 5624 5622 5619 5616 5613 5609 5606 5601 5598 5594 5590 5586 5582 5578 5574 5572 5571 5563 5555 5549 5543 5538 5533 5528 5524
5607 5610 5613 5616 5619 5621 5623 5625 5626 5627 5627 5627 5627 5626 5625 5623 5621 5618 5616 5614 5611 5608 5605 5602 5599 5595 5591 5587 5583 5580 5575 5571 5567 5564 5561 5554 5546 5538 5533 5528 5523 5519 5514
5592 5595 5597 5600 5602 5605 5608 5610 5612 5613 5614 5614 5614 5614 5613 5612 5611 5608 5605 5603 5601 5599 5596 5593 5590 5586 5583 5578 5575 5571 5566 5563 5558 5554 5551 5545 5538 5529 5525 5520 5516 5510 5505
5575 5578 5580 5583 5586 5589 5591 5594 5596 5597 5599 5600 5600 5600 5600 5600 5598 5595 5592 5590 5589 5587 5585 5583 5580 5575 5571 5567 5564 5560 5557 5554 5550 5546 5542 5537 5532 5525 5519 5512 5506 5501 5497
5556 5559 5561 5564 5568 5571 5573 5576 5579 5581 5582 5584 5585 5585 5586 5586 5584 5581 5578 5576 5576 5575 5573 5571 5568 5565 5561 5558 5554 5549 5545 5542 5539 5537 5533 5530 5524 5518 5510 5504 5498 5495 5491
5538 5541 5543 5546 5549 5552 5555 5558 5561 5563 5565 5567 5569 5570 5571 5571 5569 5566 5564 5562 5562 5561 5560 5558 5555 5553 5549 5545 5542 5538 5534 5531 5528 5524 5522 5519 5514 5509 5504 5498 5492 5484 5476
5520 5522 5525 5527 5531 5535 5538 5541 5543 5546 5548 5550 5551 5552 5554 5555 5553 5551 5548 5546 5547 5547 5545 5544 5542 5540 5538 5533 5529 5526 5522 5518 5515 5512 5509 5506 5502 5498 5493 5485 5479 5473 5468
5500 5503 5506 5510 5514 5518 5521 5524 5526 5528 5531 5532 5533 5534 5536 5538 5538 5536 5533 5531 5531 5530 5529 5528 5526 5525 5524 5520 5517 5514 5511 5507 5501 5497 5494 5491 5488 5484 5480 5475 5470 5464 5458
5481 5485 5489 5493 5496 5500 5504 5507 5509 5512 5514 5515 5516 5518 5518 5519 5520 5519 5517 5515 5515 5514 5513 5513 5511 5509 5507 5506 5504 5502 5500 5495 5489 5484 5480 5476 5472 5469 5465 5461 5457 5453 5448
5462 5468 5472 5477 5480 5483 5487 5490 5491 5494 5496 5498 5499 5501 5502 5501 5501 5502 5501 5500 5499 5497 5498 5497 5495 5493 5492 5491 5489 5488 5484 5480 5475 5471 5467 5463 5459 5454 5449 5445 5441 5438 5435
5444 5449 5454 5459 5462 5465 5468 5471 5473 5475 5477 5480 5480 5482 5484 5483 5483 5483 5483 5483 5482 5480 5480 5479 5478 5477 5476 5475 5473 5470 5467 5464 5462 5458 5454 5449 5445 5440 5435 5430 5425 5422 5418
5425 5431 5436 5440 5444 5446 5448 5451 5454 5457 5458 5460 5461 5462 5463 5464 5464 5464 5464 5463 5463 5462 5461 5460 5460 5460 5459 5458 5456 5453 5450 5448 5446 5444 5439 5433 5428 5424 5420 5416 5411 5407 5402
5407 5412 5417 5420 5424 5427 5430 5431 5433 5436 5437 5438 5440 5440 5441 5444 5446 5445 5445 5445 5445 5443 5442 5441 5441 5441 5440 5439 5437 5436 5433 5431 5429 5426 5422 5417 5413 5409 5404 5400 5396 5392 5388
5388 5393 5396 5400 5403 5406 5410 5413 5415 5415 5418 5419 5419 5419 5421 5423 5425 5426 5426 5426 5427 5425 5424 5425 5425 5424 5424 5422 5420 5418 5416 5414 5412 5408 5405 5401 5398 5394 5389 5384 5381 5377 5373
5366 5371 5375 5378 5382 5385 5388 5390 5393 5396 5397 5398 5399 5399 5400 5403 5404 5405 5406 5406 5407 5406 5406 5407 5407 5406 5405 5404 5402 5401 5399 5397 5394 5391 5388 5385 5382 5378 5374 5369 5365 5361 5356
5345 5349 5353 5357 5360 5363 5365 5367 5368 5370 5372 5375 5377 5377 5378 5380 5382 5383 5384 5384 5385 5385 5385 5386 5386 5386 5386 5385 5383 5382 5380 5378 5375 5373 5371 5368 5365 5362 5358 5354 5350 5345 5340
5325 5329 5332 5335 5338 5340 5342 5344 5345 5346 5347 5349 5351 5353 5354 5356 5359 5359 5359 5359 5360 5361 5361 5362 5364 5364 5364 5364 5363 5362 5361 5359 5357 5354 5352 5349 5346 5344 5341 5337 5333 5328 5323
5304 5307 5309 5312 5315 5318 5320 5321 5322 5323 5324 5325 5326 5327 5329 5331 5332 5333 5332 5331 5333 5335 5336 5338 5339 5340 5341 5342 5342 5342 5341 5339 5337 5335 5332 5329 5327 5325 5322 5319 5315 5311 5306
5284 5286 5288 5290 5293 5296 5298 5299 5299 5300 5300 5301 5302 5304 5307 5305 5306 5306 5307 5307 5308 5310 5312 5314 5316 5317 5318 5318 5320 5320 5320 5318 5316 5314 5311 5309 5306 5304 5302 5299 5296 5292 5288
5263 5266 5268 5269 5271 5273 5274 5276 5276 5277 5277 5278 5279 5281 5284 5282 5283 5283 5283 5284 5285 5287 5288 5291 5293 5294 5295 5296 5297 5298 5297 5296 5295 5293 5291 5288 5286 5283 5281 5279 5276 5272 5268
5243 5245 5247 5248 5249 5251 5252 5253 5254 5255 5256 5256 5257 5258 5260 5260 5261 5261 5261 5262 5263 5264 5266 5268 5270 5272 5274 5275 5276 5276 5276 5275 5274 5272 5271 5269 5266 5264 5261 5259 5256 5252 5249
5223 5225 5226 5228 5229 5231 5231 5232 5233 5233 5234 5235 5236 5237 5238 5238 5239 5239 5240 5240 5241 5243 5244 5247 5249 5251 5253 5254 5255 5255 5255 5255 5254 5252 5251 5249 5247 5244 5241 5238 5235 5232 5228
5204 5205 5206 5207 5208 5210 5211 5212 5212 5213 5213 5214 5215 5215 5216 5217 5217 5218 5219 5220 5221 5222 5223 5225 5228 5230 5232 5234 5235 5235 5235 5235 5234 5232 5231 5229 5227 5224 5221 5218 5215 5212 5208
5185 5185 5186 5187 5188 5189 5190 5191 5191 5192 5193 5194 5195 5195 5196 5197 5197 5198 5199 5200 5201 5202 5204 5205 5208 5210 5212 5213 5215 5215 5215 5215 5214 5213 5212 5210 5207 5204 5201 5199 5196 5192 5188